Simultaneous Nadir Overpasses (SNOs) Predictions

Prediction of SNOs between GOES-15 and TERRA Satellite Orbit:

Table of predicted SNOs for the next 14.0 days since TLE Epoch: 9/17/2022
Index Date Time (GOES-15) GOES-15 Lat,Lon TERRA Lat,Lon Distance(km) Time Diff (sec)
1 09/17/2022 06:30:47 0.28,-127.70 1.02,-124.30 387.16 80
2 09/17/2022 18:52:02 -0.30,-127.75 0.04,-129.47 195.12 80
3 09/19/2022 18:42:25 -0.29,-127.81 -0.54,-126.50 148.72 80
4 09/20/2022 07:03:48 0.30,-127.81 -0.50,-131.70 442.12 80
5 09/21/2022 18:30:09 -0.28,-127.88 -1.18,-123.54 492.20 80
6 09/22/2022 06:51:31 0.30,-127.87 0.09,-128.74 98.90 80
7 09/24/2022 06:36:36 0.29,-127.93 0.75,-125.78 244.15 80
8 09/24/2022 18:57:50 -0.31,-127.96 0.30,-130.95 339.77 80
9 09/26/2022 18:48:13 -0.31,-128.01 -0.30,-127.99 3.17 80
10 09/28/2022 18:35:56 -0.30,-128.06 -0.92,-125.02 345.39 80
11 09/29/2022 06:57:19 0.31,-128.07 -0.16,-130.22 244.44 80
